Regional Weather Roundup
Issued by NWS Newport/Morehead, NC

Current Version | Previous Version | Text Only | Print | Product List | Glossary On
Versions: 1 2 3 4 5 6 7 8 9 10 11 12 13 14 15 16 17 18 19 20 21 22 23 24 25 26 27 28 29 30 31 32 33 34 35 36 37 38 39 40 41 42 43 44 45 46 47 48 49 50
000
ASUS42 KMHX 270810
RWRMHX
WEATHER ROUNDUP FOR EASTERN NORTH CAROLINA
NATIONAL WEATHER SERVICE NEWPORT/MOREHEAD CITY NC
300 AM EST SAT DEC 27 2014

NOTE: "FAIR" INDICATES FEW OR NO CLOUDS BELOW 12,000 FEET
WITH NO SIGNIFICANT WEATHER AND/OR OBSTRUCTIONS TO VISIBILITY

NCZ015>017-031-032-045>047-102-103-270900-
NORTH COAST

CITY           SKY/WX    TMP DP  RH WIND       PRES   REMARKS
EDENTON          N/A     35  34  94 CALM      30.30F
ELIZABETH CITY PTCLDY    39  35  86 CALM      30.30F
KITTY HAWK     MOSUNNY   44  43  99 SW3       30.29F
MANTEO           N/A     37  37 100 CALM      30.31S FOG

$$

NCZ045>047-081-094-103-104-270900-
CENTRAL COAST

CITY           SKY/WX    TMP DP  RH WIND       PRES   REMARKS
FRISCO         CLEAR     39  38  96 NW5       30.30S
SWANQUARTER      N/A     37 N/A N/A NW1       30.27S

$$

NCZ095-097-098-100-101-270900-
SOUTHERN COAST

CITY           SKY/WX    TMP DP  RH WIND       PRES   REMARKS
BEAUFORT       CLEAR     38  37  97 CALM      30.31S
CEDAR ISLAND     N/A     45 N/A N/A W3        30.33S
JACKSONVILLE   CLEAR     35  34  96 CALM      30.30F
PINEY ISLAND   SUNNY     49  39  68 W5        30.30S
WILMINGTON     CLEAR     37  35  92 CALM      30.30F


$$

NCZ011>013-027>030-043-044-078>080-089-090>093-098-270900-
COASTAL PLAIN

CITY           SKY/WX    TMP DP  RH WIND       PRES   REMARKS
AHOSKIE        CLEAR     32  31  97 CALM      30.30F FOG
CLINTON        PTCLDY    34  34 100 CALM      30.31S
ELIZABETHTOWN  PTCLDY    35  33  94 CALM      30.30S
GOLDSBORO      PTCLDY    34  34 100 E2        30.29S
GREENVILLE     CLEAR     36  34  93 CALM      30.30F
HAVELOCK       CLEAR     36  33  89 CALM      30.31F
KENANSVILLE    CLEAR     32  32 100 CALM      30.32S
KINSTON        PTCLDY    32  32  99 S3        30.31S
NEW BERN       PTCLDY    36  32  85 CALM      30.32S
RICHLANDS      CLEAR     32  28  86 CALM      30.31F
ROCKY MOUNT    CLEAR     34  33  96 S3        30.29F
WASHINGTON     CLEAR     36  34  94 CALM      30.30F
WHITEVILLE     CLEAR     36  34  92 CALM      30.29F

$$

AMZ130-135-150-152-154-156-158-170-250-252-270-ANZ085-086-088-633-658-670-270900-
MARINE OBSERVATIONS

STATION/POSITION TIME  TEMP    WIND        PRES    WAVE   SWELL
                       AIR SEA DIR/SP/G            HT/PER HT/PER
                 (UTC) (F)     (DEG/KT/KT) (MB)    (FT/S) (FT/S)
CHESAPEAKE LIGHT 0700   47     230/ 10/ 10 1026.3
64 E VA BEACH    0800   52 52  240/  8/  8 1025.5    2/14   2/14
DUCK             0800   47 51  230/  5/  5 1025.4
2 E DUCK         0800      50                N/A     2/12   2/12
10 NE DUCK       0800      50                N/A     2/12   2/12
OREGON INLET     0800   48 53  260/  4/  5 1026.1
13E OREGON INLT  0800      50                N/A     3/ 8   2/12
HATTERAS CG      0800   49 55  330/  2/  2 1026.3
DIAMOND BUOY     0800   56                 1025.9    2/ 8
17 S OCRACOKE    NOT AVBL
CAPE LOOKOUT     0700   53     340/  3/  3 1025.9
BEAUFORT LAB     0800   47 55  360/  2/  3 1025.2
30 SE NEW RIVER  0800   58 60  360/  8/ 10 1026.2    2/ 7   2/ 7
5 SE WRIGHTSVLE  NOT AVBL
225 S CAPE HAT   0723   67 74   90/  6/ 10 1025.2    3/12   3/12
41 SE CHARLESTON 0800   63 74   20/ 12/ 14 1024.7    2/ 8   2/ 8

$$


USA.gov is the U.S. government's official web portal to all federal, state and local government web resources and services.